| time (UTC) | temp C | wind direction | speed KPH | gust KPH | rain 1hr cm | rain 24hr cm | rain mn cm | humidity % | barometer mb |
| 20260507060009 | 8 | 340 | 0.0 | 0.0 | 0.00 | 0.00 | 0.00 | 73 | 1019.8 |
| 20260507054558 | 9 | 340 | 0.0 | 0.0 | 0.00 | 0.00 | 0.00 | 70 | 1020.0 |
| 20260507053056 | 10 | 340 | 0.0 | 0.0 | 0.00 | 0.00 | 0.00 | 69 | 1020.0 |
| 20260507051553 | 10 | 340 | 0.0 | 0.0 | 0.00 | 0.00 | 0.00 | 69 | 1019.6 |
| 20260507050049 | 10 | 340 | 0.0 | 0.0 | 0.00 | 0.00 | 0.00 | 67 | 1019.7 |
| 20260507044547 | 11 | 340 | 0.0 | 0.0 | 0.00 | 0.00 | 0.00 | 64 | 1019.8 |
| 20260507043045 | 11 | 340 | 0.0 | 3.2 | 0.00 | 0.00 | 0.00 | 63 | 1019.3 |
| 20260507041547 | 11 | 340 | 0.0 | 1.6 | 0.00 | 0.00 | 0.00 | 65 | 1018.7 |
| 20260507040043 | 11 | 340 | 0.0 | 3.2 | 0.00 | 0.00 | 0.00 | 67 | 1018.4 |
| 20260507034546 | 11 | 340 | 0.0 | 0.0 | 0.00 | 0.00 | 0.00 | 67 | 1018.8 |
| 20260507033041 | 11 | 340 | 0.0 | 1.6 | 0.00 | 0.00 | 0.00 | 65 | 1018.8 |
| 20260507031540 | 11 | 340 | 0.0 | 0.0 | 0.00 | 0.00 | 0.00 | 64 | 1018.7 |
| 20260507030037 | 12 | 340 | 0.0 | 0.0 | 0.00 | 0.00 | 0.00 | 62 | 1018.5 |
| 20260507024536 | 12 | 340 | 0.0 | 0.0 | 0.00 | 0.00 | 0.00 | 61 | 1018.2 |
| 20260507023040 | 13 | 340 | 0.0 | 3.2 | 0.00 | 0.00 | 0.00 | 59 | 1018.1 |
| 20260507021536 | 13 | 340 | 0.0 | 1.6 | 0.00 | 0.00 | 0.00 | 57 | 1017.8 |
| 20260507020045 | 14 | 340 | 0.0 | 3.2 | 0.00 | 0.00 | 0.00 | 55 | 1017.7 |
| 20260507014543 | 15 | 332 | 0.0 | 3.2 | 0.00 | 0.00 | 0.00 | 54 | 1017.4 |
| 20260507013034 | 15 | 334 | 0.0 | 3.2 | 0.00 | 0.00 | 0.00 | 53 | 1017.2 |
| 20260507011534 | 15 | 70 | 1.6 | 8.0 | 0.00 | 0.00 | 0.00 | 52 | 1017.2 |
| 20260507010033 | 16 | 320 | 1.6 | 8.0 | 0.00 | 0.00 | 0.00 | 51 | 1017.1 |
| 20260507004538 | 16 | 17 | 1.6 | 8.0 | 0.00 | 0.00 | 0.00 | 51 | 1017.1 |
| 20260507003032 | 16 | 266 | 0.0 | 8.0 | 0.00 | 0.00 | 0.00 | 51 | 1016.9 |
| 20260507001531 | 16 | 5 | 0.0 | 6.4 | 0.00 | 0.00 | 0.00 | 51 | 1016.8 |
| 20260507000030 | 17 | 340 | 0.0 | 6.4 | 0.00 | 0.00 | 0.00 | 51 | 1016.7 |
| 20260506234536 | 16 | 5 | 0.0 | 9.7 | 0.00 | 0.00 | 0.00 | 55 | 1016.6 |
| 20260506233029 | 16 | 5 | 1.6 | 4.8 | 0.00 | 0.00 | 0.00 | 58 | 1016.3 |
| 20260506231538 | 16 | 308 | 0.0 | 4.8 | 0.00 | 0.00 | 0.00 | 61 | 1016.2 |
| 20260506230030 | 17 | 341 | 1.6 | 6.4 | 0.00 | 0.00 | 0.00 | 57 | 1016.2 |
| 20260506224528 | 19 | 43 | 0.0 | 8.0 | 0.00 | 0.00 | 0.00 | 46 | 1016.0 |
| 20260506223042 | 19 | 292 | 1.6 | 8.0 | 0.00 | 0.00 | 0.00 | 44 | 1015.8 |
| 20260506221525 | 18 | 5 | 0.0 | 4.8 | 0.00 | 0.00 | 0.00 | 49 | 1015.6 |
| 20260506220026 | 18 | 91 | 1.6 | 8.0 | 0.00 | 0.00 | 0.00 | 49 | 1015.7 |
| 20260506214523 | 19 | 127 | 0.0 | 9.7 | 0.00 | 0.00 | 0.00 | 47 | 1015.7 |
| 20260506213021 | 18 | 18 | 1.6 | 6.4 | 0.00 | 0.00 | 0.00 | 47 | 1015.8 |
| 20260506211519 | 17 | 63 | 0.0 | 8.0 | 0.00 | 0.00 | 0.00 | 51 | 1016.1 |
| 20260506210019 | 17 | 14 | 0.0 | 6.4 | 0.00 | 0.00 | 0.00 | 54 | 1016.2 |
| 20260506204519 | 17 | 5 | 0.0 | 6.4 | 0.00 | 0.00 | 0.00 | 53 | 1016.5 |
| 20260506203024 | 17 | 5 | 0.0 | 6.4 | 0.00 | 0.00 | 0.00 | 52 | 1016.5 |
| 20260506201529 | 17 | 65 | 1.6 | 8.0 | 0.00 | 0.00 | 0.00 | 51 | 1016.7 |
| 20260506200013 | 17 | 355 | 1.6 | 17.7 | 0.00 | 0.00 | 0.00 | 52 | 1016.8 |
| 20260506194511 | 17 | 355 | 0.0 | 8.0 | 0.00 | 0.00 | 0.00 | 53 | 1016.9 |
| 20260506193007 | 16 | 18 | 0.0 | 9.7 | 0.00 | 0.00 | 0.00 | 55 | 1017.0 |
| 20260506191507 | 16 | 355 | 1.6 | 8.0 | 0.00 | 0.00 | 0.00 | 55 | 1017.1 |
| 20260506190007 | 16 | 55 | 0.0 | 6.4 | 0.00 | 0.00 | 0.00 | 56 | 1017.3 |
| 20260506184506 | 16 | 319 | 1.6 | 4.8 | 0.00 | 0.00 | 0.00 | 55 | 1017.3 |
| 20260506183006 | 16 | 355 | 0.0 | 4.8 | 0.00 | 0.00 | 0.00 | 56 | 1017.6 |
| 20260506181508 | 16 | 5 | 0.0 | 6.4 | 0.00 | 0.00 | 0.00 | 55 | 1017.6 |
| 20260506180010 | 16 | 94 | 1.6 | 4.8 | 0.00 | 0.00 | 0.00 | 55 | 1017.8 |
| 20260506174508 | 16 | 100 | 3.2 | 9.7 | 0.00 | 0.00 | 0.00 | 56 | 1017.8 |
| 20260506173002 | 16 | 303 | 1.6 | 8.0 | 0.00 | 0.00 | 0.00 | 54 | 1018.0 |
| 20260506171559 | 15 | 61 | 3.2 | 6.4 | 0.00 | 0.00 | 0.00 | 55 | 1017.9 |
| 20260506170114 | 15 | 53 | 3.2 | 8.0 | 0.00 | 0.00 | 0.00 | 57 | 1018.0 |
| 20260506164556 | 15 | 54 | 1.6 | 8.0 | 0.00 | 0.00 | 0.00 | 59 | 1018.1 |
| 20260506163106 | 15 | 82 | 0.0 | 9.7 | 0.00 | 0.00 | 0.00 | 59 | 1018.2 |
| 20260506161551 | 14 | 19 | 1.6 | 12.9 | 0.00 | 0.00 | 0.00 | 59 | 1018.3 |
| 20260506160047 | 13 | 89 | 3.2 | 9.7 | 0.00 | 0.00 | 0.00 | 61 | 1017.9 |
| 20260506154544 | 12 | 96 | 1.6 | 8.0 | 0.00 | 0.00 | 0.00 | 63 | 1018.1 |
| 20260506153041 | 12 | 17 | 0.0 | 8.0 | 0.00 | 0.00 | 0.00 | 65 | 1017.9 |
| 20260506151542 | 12 | 5 | 3.2 | 8.0 | 0.00 | 0.00 | 0.00 | 66 | 1017.9 |
| 20260506150032 | 11 | 44 | 0.0 | 8.0 | 0.00 | 0.00 | 0.00 | 72 | 1017.9 |
| 20260506144531 | 10 | 318 | 1.6 | 12.9 | 0.00 | 0.00 | 0.00 | 75 | 1017.6 |
| 20260506143031 | 10 | 5 | 1.6 | 6.4 | 0.00 | 0.00 | 0.00 | 77 | 1017.4 |
| 20260506141523 | 10 | 333 | 3.2 | 9.7 | 0.00 | 0.00 | 0.00 | 76 | 1017.3 |
| 20260506140022 | 10 | 250 | 0.0 | 8.0 | 0.00 | 0.00 | 0.00 | 78 | 1017.4 |
| 20260506134520 | 9 | 314 | 1.6 | 14.5 | 0.00 | 0.00 | 0.00 | 79 | 1017.4 |
| 20260506133018 | 9 | 318 | 1.6 | 6.4 | 0.00 | 0.00 | 0.00 | 80 | 1017.6 |
| 20260506131524 | 9 | 306 | 1.6 | 9.7 | 0.00 | 0.00 | 0.00 | 80 | 1017.4 |
| 20260506130015 | 8 | 25 | 0.0 | 6.4 | 0.00 | 0.00 | 0.00 | 81 | 1017.2 |
| 20260506124510 | 8 | 22 | 1.6 | 8.0 | 0.00 | 0.00 | 0.00 | 82 | 1017.3 |
| 20260506123006 | 8 | 49 | 0.0 | 6.4 | 0.00 | 0.00 | 0.00 | 83 | 1016.7 |
| 20260506121504 | 8 | 88 | 0.0 | 8.0 | 0.00 | 0.00 | 0.00 | 83 | 1016.5 |
| 20260506120059 | 8 | 355 | 0.0 | 8.0 | 0.00 | 0.00 | 0.00 | 83 | 1016.2 |
| 20260506114557 | 8 | 323 | 1.6 | 12.9 | 0.00 | 0.00 | 0.00 | 82 | 1016.0 |
| 20260506113056 | 8 | 52 | 0.0 | 6.4 | 0.00 | 0.00 | 0.00 | 82 | 1015.9 |
| 20260506111554 | 8 | 66 | 0.0 | 4.8 | 0.00 | 0.00 | 0.00 | 81 | 1015.7 |
| 20260506110053 | 8 | 20 | 0.0 | 3.2 | 0.00 | 0.00 | 0.00 | 81 | 1015.4 |
| 20260506104551 | 8 | 38 | 0.0 | 6.4 | 0.00 | 0.00 | 0.00 | 80 | 1016.1 |
| 20260506103054 | 8 | 49 | 0.0 | 4.8 | 0.00 | 0.00 | 0.00 | 79 | 1016.5 |
| 20260506101547 | 8 | 52 | 0.0 | 4.8 | 0.00 | 0.00 | 0.00 | 79 | 1016.0 |
| 20260506100045 | 8 | 355 | 0.0 | 4.8 | 0.00 | 0.00 | 0.00 | 79 | 1016.0 |
| 20260506094542 | 8 | 5 | 0.0 | 3.2 | 0.00 | 0.00 | 0.00 | 79 | 1015.5 |
| 20260506093039 | 8 | 14 | 0.0 | 6.4 | 0.00 | 0.00 | 0.00 | 78 | 1015.1 |
| 20260506091538 | 8 | 22 | 0.0 | 4.8 | 0.00 | 0.00 | 0.00 | 77 | 1014.7 |
| 20260506090045 | 8 | 40 | 1.6 | 6.4 | 0.00 | 0.00 | 0.00 | 76 | 1014.5 |
| 20260506084539 | 8 | 42 | 1.6 | 4.8 | 0.00 | 0.00 | 0.00 | 76 | 1014.6 |
| 20260506083032 | 8 | 5 | 0.0 | 6.4 | 0.00 | 0.00 | 0.00 | 75 | 1014.2 |
| 20260506081536 | 8 | 29 | 0.0 | 6.4 | 0.00 | 0.00 | 0.00 | 75 | 1013.6 |
| 20260506073023 | 9 | 65 | 0.0 | 4.8 | 0.00 | 0.00 | 0.00 | 75 | 1013.1 |
| 20260506071521 | 9 | 317 | 0.0 | 4.8 | 0.00 | 0.00 | 0.00 | 74 | 1012.8 |
| 20260506061538 | 9 | 355 | 0.0 | 4.8 | 0.00 | 0.00 | 0.00 | 74 | 1012.9 |